Location: Kawakawa
(35.3830°S, 174.0670°E)
Time: 10:01:00
(UTC+13:00)

Cosmos 1745 Rocket - Pass Details

Date: 24 January 2019
Orbit: 953 x 998 km, 83.0° (Epoch: 20 October)

Event Time Altitude Azimuth Distance (km) Brightness Sun altitude
Exits shadow 23:05:21 37° 346° (NNW) 1,507 4.7 -24.8°
Maximum altitude 23:08:05 80° 264° (W) 1,022 4.0 -25.1°
Drops below altitude 10° 23:14:30 10° 176° (S) 2,779 7.0 -25.9°
Sets 23:17:03 0° 175° (S) 3,729 7.7 -26.3°
